星链-6117 (STARLINK-6117 )

导读

STARLINK-6117是美国太空探索技术公司(SpaceX)星链(Starlink)星座中的一颗卫星,于2023年3月29日发射入轨,属于星链互联网卫星星座组网卫星,旨在为全球提供高速低延迟互联网服务,目前已在轨运行近三年,是星链大规模组网建设中的组成单元之一。

Basic Information
目录编号:
56130
目录名称:
STARLINK-6117
国际标识:
2023-046AQ
轨道中心:
EARTH
卫星名称:
星链-6117
卫星全名:
星链-6117 (STARLINK-6117 )
卫星状态:
在轨 (已飞行1263 天)
发射日期:
2023-03-29 UTC
国别 :
美国 (US)
星等 :
--
This satellite is enrolled in the Space Conjunction Data Service (SCDS) and the current flight risk assessment level is: No High Risk
Orbit Information
数据来源 国际轨道数据 AOE轨道数据
星历时间 2026-09-12T12:35:30+0800
12小时前
查看轨道信息
2026-09-09T22:00:00+0800
3天前
查看轨道信息
半长轴 6861.198km 6861.193km
偏心率 0.0001143 0.0001118
轨道倾角 43.002° 42.999°
近地点辐角 259.971° 224.590°
升交点赤经 173.685° 188.413°
平近点角 100.102° 176.633°
近地点 482.276km 482.288km
远地点 483.846km 483.824km
周期 94.267分钟 94.267分钟
每日圈数 15.275762 15.275779
Detailed Information
固有亮度:
5
最大亮度:
2.5
卫星平台:
Starlink v1.5
覆盖范围:
全球
运营商:
太空探索技术公司
运营商所在国:
美国
制造商(研发单位):
太空探索技术公司
制造商所在国:
美国
使用方式:
暂无
Satellite Introduction
星链(Starlink)计划是由太空探索技术公司(SpaceX)提出的一个巨型低轨卫星互联网星座项目,计划在2019年至2024年间在太空搭建由约1.2万颗卫星组成的“星链”网络,其中1584颗将部署在地球上空550千米处的近地轨道,并从2020年开始工作。该卫星仍在工作。
2D Orbit Map
3D Orbit Map
Orbit Altitude Analysis Chart
Orbit Inclination Analysis Chart
Orbit Comprehensive Analysis Chart
View Comprehensive Chart
Conjunction Data List
Event ID Objects TCA Miss Dist (km) Collision Risk Probability Collision Risk Index (CRI) Action
CDM_260914-212505-613006-745421
2026-09-14T
21:25:15+0000
0.728 km
远距离
3.704761E-5 中风险 0.66
CDM_260914-142105-613006-745422
2026-09-14T
14:21:33+0000
0.948 km
远距离
1.539732E-5 中风险 0.59
CDM_260914-124705-613006-745421
2026-09-14T
12:47:24+0000
1.424 km
极远距离
3.869179E-6 低风险 0.47
CDM_260914-055005-320205-613021
2026-09-14T
05:50:33+0000
2.745 km
极远距离
1.459359E-6 低风险 0.38
CDM_260914-225905-613006-745421
2026-09-14T
22:59:24+0000
2.039 km
极远距离
1.414275E-6 低风险 0.38
Miss Distance Evolution Trend with All Objects
Collision Probability Evolution Trend with All Objects